Regional Weather Roundup
Issued by NWS

Home | Current Version | Previous Version | Text Only | Print | Product List | Glossary On
Versions: 1 2 3 4 5 6 7 8 9 10 11 12 13 14 15 16 17 18 19 20 21 22 23 24 25 26 27 28 29 30 31 32 33 34 35 36 37 38 39 40 41 42 43 44 45 46 47 48 49 50
000
ASUS46 KSTO 301015
RWRCA

NORTHERN AND CENTRAL CA REGIONAL WEATHER ROUNDUP
NATIONAL WEATHER SERVICE SACRAMENTO CA
300 AM PDT FRI SEP 30 2016

NOTE: FAIR INDICATES FEW OR NO CLOUDS BELOW 12,000 FEET WITH NO
SIGNIFICANT WEATHER AND/OR OBSTRUCTIONS TO VISIBILITY.

CAZ001-003-301100-
NORTHWEST AREA

CITY           SKY/WX    TMP DP  RH WIND       PRES   REMARKS
CRESCENT CITY  CLOUDY    53  50  89 SE8       30.09S
UKIAH          CLEAR     48  34  58 CALM      30.07R
$$

CAZ006-505>513-301100-
BAY AREA

CITY           SKY/WX    TMP DP  RH WIND       PRES   REMARKS
SANTA ROSA     CLOUDY    51  50  96 S3        30.08R
SAN RAFAEL     N/A       51  MM  MM MISG
NAPA           CLOUDY    54  50  86 W7        30.09R
CONCORD        CLEAR     55  48  77 S9        30.08R
OAKLAND CITY   N/A       55  MM  MM MISG
OAKLAND        CLOUDY    56  52  86 W6        30.11S
SAN FRAN CITY  N/A       52  MM  98 MISG
SAN FRAN ARPT  CLOUDY    54  50  86 W12       30.11S
LIVERMORE      CLEAR     53  48  83 W9        30.09R
HAYWARD        CLOUDY    56  50  80 W7        30.11R
REDWOOD CITY   N/A       53  MM  86 MISG
MOFFETT ARPT   CLOUDY    57  51  80 CALM      30.11S
SAN JOSE ARPT  CLOUDY    57  51  80 NE5       30.11R
$$
CAZ034-037-514>518-301100-
CENTRAL COAST

CITY           SKY/WX    TMP DP  RH WIND       PRES   REMARKS
WATSONVILLE    CLOUDY    53  53 100 N3        30.10S FOG
SALINAS        CLOUDY    54  50  86 SW7       30.10S
MONTEREY       CLOUDY    52  50  93 S5        30.11S
SAN LUIS OBISP FOG       54  53  97 CALM      30.06S VSB 1/2
SANTA MARIA    FOG       54  54 100 CALM      30.06F VSB 1/4
$$
CAZ015-016-301100-
NORTHERN SACRAMENTO VALLEY

CITY           SKY/WX    TMP DP  RH WIND       PRES   REMARKS
REDDING        CLEAR     62  47  57 CALM      29.98R
RED BLUFF      CLEAR     62  47  57 S7        29.98R
OROVILLE       CLEAR     62  40  44 S10       30.00R
$$
CAZ016>018-301100-
SOUTHERN SACRAMENTO VALLEY

CITY           SKY/WX    TMP DP  RH WIND       PRES   REMARKS
AUBURN         CLEAR     64  27  24 SE8       30.06F
BEALE AFB      CLEAR     58  39  49 S8        29.98S
LINCOLN        FAIR      59  39  47 S9        30.01R
MARYSVILLE     CLEAR     57  46  66 S10       30.01R
SAC INTL ARPT  CLEAR     55  48  77 S13       30.00S
MATHER AIRPORT NOT AVBL
DOWNTOWN SAC   N/A       56  MM  MM MISG
SAC EXEC ARPT  CLEAR     54  49  83 S7        30.03R
VACAVILLE      CLEAR     60  46  59 SW10      30.00S
TRAVIS AFB     CLEAR     52  49  88 SW20G28   30.02R
$$
CAZ019>021-301100-
SAN JOAQUIN VALLEY

CITY           SKY/WX    TMP DP  RH WIND       PRES   REMARKS
STOCKTON       CLEAR     55  46  71 N6        30.03S
MODESTO        CLEAR     63  42  46 NW6       30.02S
MERCED         CLEAR     61  38  42 NW5       30.01S
LEMOORE        CLEAR     66  37  34 NW9       30.01F
FRESNO         PTCLDY    67  38  34 CALM      30.01S
HANFORD        CLEAR     64  43  46 CALM      30.02R
PORTERVILLE    CLEAR     64  47  53 SE6       30.02S
BAKERSFIELD    CLEAR     71  44  37 CALM      30.04R
$$
CAZ011-012-071-301100-
NORTHERN MOUNTAINS

CITY           SKY/WX    TMP DP  RH WIND       PRES   REMARKS
YREKA          CLEAR     51  34  52 CALM      30.03S
MOUNT SHASTA   CLEAR     60  39  45 CALM      30.07S
ALTURAS        CLEAR     39  29  67 CALM      30.12S
$$
CAZ011-012-071-301100-
SIERRA NEVADA MTNS

CITY           SKY/WX    TMP DP  RH WIND       PRES   REMARKS
BLUE CANYON    CLEAR     58  33  39 SE8       30.22F
TRUCKEE        CLEAR     41  32  70 N3        30.25S
TAHOE VLY ARPT CLEAR     43  31  62 CALM      30.26S
MAMMOTH LAKES  FAIR      35  28  76 CALM      30.34F
$$




USA.gov is the U.S. government's official web portal to all federal, state and local government web resources and services.